Hollywood, FL

7:57 PM EST on December 15, 2017 (GMT -0500)
North Perry

Weather History for KHWO - January, 2012

Change the Weather History Date:

Tuesday, January 3, 2012

  Actual Average (KFLL) Record (KFLL)
Temperature  
Mean Temperature 48 °F -  
Max Temperature 54 °F 77 °F 87 °F (1954)
Min Temperature 42 °F 61 °F 39 °F (2008)
Degree Days  
Heating Degree Days 17    
Moisture  
Dew Point 26 °F    
Average Humidity 43    
Maximum Humidity 63    
Minimum Humidity 17    
Precipitation  
Precipitation 0.00 in - - ()
Sea Level Pressure  
Sea Level Pressure 30.30 in    
Wind  
Wind Speed 13 mph (NW)    
Max Wind Speed 25 mph    
Max Gust Speed 34 mph    
Visibility 10 miles    
Events      
Averages and records for this station are not official NWS values.
T = Trace of Precipitation, MM = Missing Value Source: NWS Daily Summary

Daily Weather History Graph

Daily Weather History Graph

Search for Another Location

Airport or City:

Trip Planner

Search our weather history database for the weather conditions in past years. The results will help you decide how hot, cold, wet, or windy it might be!

Date:

Astronomy

Jan. 03, 2012 Rise Set
Actual Time 7:08 AM EST 5:42 PM EST
Civil Twilight 6:43 AM EST 6:07 PM EST
Nautical Twilight 6:14 AM EST 6:35 PM EST
Astronomical Twilight 5:46 AM EST 7:04 PM EST
Moon 1:21 PM EST (1/3) 2:07 AM EST (1/3)
Length of Visible Light 11h 23m
Length of Day
10h 33m
Waxing Gibbous, 72% of the Moon is Illuminated
Jan 3
Waxing Gibbous
Jan 9
Full
Jan 16
Last Quarter
Jan 23
New
Jan 30
First Quarter

Hourly Weather History & Observations

Time (EST) Temp. Windchill Dew Point Humidity Pressure Visibility Wind Dir Wind Speed Gust Speed Precip Events Conditions
12:53 AM 52.0 °F - 39.9 °F 63% 30.21 in 10.0 mi NW 12.7 mph 21.9 mph N/A   Clear
1:53 AM 52.0 °F - 39.9 °F 63% 30.22 in 10.0 mi NW 15.0 mph - N/A   Clear
2:53 AM 51.1 °F - 37.9 °F 61% 30.22 in 10.0 mi NW 17.3 mph 21.9 mph N/A   Clear
3:53 AM 51.1 °F - 37.9 °F 61% 30.22 in 10.0 mi NW 11.5 mph - N/A   Clear
4:53 AM 51.1 °F - 37.9 °F 61% 30.23 in 10.0 mi NW 12.7 mph - N/A   Clear
5:53 AM 52.0 °F - 37.0 °F 57% 30.25 in 10.0 mi NW 11.5 mph - N/A   Clear
6:53 AM 50.0 °F - 37.9 °F 63% 30.25 in 10.0 mi WNW 5.8 mph - N/A   Clear
7:53 AM 52.0 °F - 37.9 °F 59% 30.27 in 10.0 mi WNW 9.2 mph - N/A   Clear
9:53 AM 51.1 °F - 30.9 °F 46% 30.36 in 10.0 mi NNW 21.9 mph 32.2 mph N/A   Clear
10:53 AM 52.0 °F - 27.0 °F 38% 30.35 in 10.0 mi NNW 21.9 mph 34.5 mph N/A   Clear
11:53 AM 53.1 °F - 21.9 °F 30% 30.33 in 10.0 mi NNW 25.3 mph 34.5 mph N/A   Clear
12:53 PM 53.1 °F - 18.0 °F 25% 30.30 in 10.0 mi North 24.2 mph 28.8 mph N/A   Clear
1:53 PM 54.0 °F - 10.0 °F 17% 30.29 in 10.0 mi NNW 15.0 mph - N/A   Clear
2:53 PM 54.0 °F - 10.9 °F 18% 30.29 in 10.0 mi NNW 18.4 mph 24.2 mph N/A   Clear
3:53 PM 54.0 °F - 12.0 °F 19% 30.30 in 10.0 mi NNW 15.0 mph - N/A   Clear
4:53 PM 52.0 °F - 14.0 °F 22% 30.32 in 10.0 mi NW 11.5 mph - N/A   Clear
5:53 PM 48.9 °F - 18.0 °F 29% 30.32 in 10.0 mi NNW 10.4 mph - N/A   Clear
6:53 PM 46.9 °F - 19.9 °F 34% 30.34 in 10.0 mi NW 5.8 mph - N/A   Clear
7:53 PM 46.0 °F 41.9 °F 21.0 °F 37% 30.36 in 10.0 mi NNW 8.1 mph - N/A   Clear
8:53 PM 45.0 °F 41.2 °F 21.9 °F 40% 30.38 in 10.0 mi North 6.9 mph - N/A   Clear
9:53 PM 44.1 °F 39.5 °F 21.9 °F 42% 30.39 in 10.0 mi NNW 8.1 mph - N/A   Clear
10:53 PM 42.1 °F 38.4 °F 23.0 °F 47% 30.39 in 10.0 mi NNW 5.8 mph - N/A   Clear
11:53 PM 42.1 °F 38.4 °F 25.0 °F 51% 30.38 in 10.0 mi NNW 5.8 mph - N/A   Clear